CW7972 Weather Reports


time (UTC)temp
C
wind
direction
speed
KPH
gust
KPH
rain 1hr
cm
rain 24hr
cm
rain mn
cm
humidity
%
barometer
mb
20260505041504 15 265 6.4 14.5 0.00 0.00 0.00 65 1032.8
20260505041004 16 264 6.4 12.9 0.00 0.00 0.00 66 1032.8
20260505040504 16 259 6.4 12.9 0.00 0.00 0.00 64 1032.8
20260505040219 16 257 6.4 11.3 0.00 0.00 0.00 65 1032.8
20260505035504 17 264 6.4 14.5 0.00 0.00 0.00 60 1032.8
20260505035004 17 262 6.4 14.5 0.00 0.00 0.00 60 1032.8
20260505034504 17 266 6.4 14.5 0.00 0.00 0.00 59 1032.8
20260505034004 18 270 6.4 14.5 0.00 0.00 0.00 58 1032.8
20260505033504 18 261 6.4 14.5 0.00 0.00 0.00 59 1032.8
20260505033004 18 259 6.4 14.5 0.00 0.00 0.00 59 1032.8
20260505032505 18 266 6.4 12.9 0.00 0.00 0.00 58 1032.8
20260505032004 18 274 4.8 12.9 0.00 0.00 0.00 58 1032.9
20260505031504 18 271 6.4 20.9 0.00 0.00 0.00 58 1032.9
20260505031218 18 273 6.4 20.9 0.00 0.00 0.00 60 1032.8
20260505030504 18 276 6.4 12.9 0.00 0.00 0.00 60 1032.8
20260505030004 17 273 6.4 12.9 0.00 0.00 0.00 61 1032.8
20260505025505 17 270 6.4 12.9 0.00 0.00 0.00 62 1032.8
20260505025004 17 270 6.4 12.9 0.00 0.00 0.00 63 1032.8
20260505024504 16 271 6.4 16.1 0.00 0.00 0.00 63 1032.8
20260505024004 16 274 6.4 16.1 0.00 0.00 0.00 65 1032.9
20260505023719 16 272 6.4 16.1 0.00 0.00 0.00 64 1032.9
20260505023004 16 281 6.4 14.5 0.00 0.00 0.00 64 1032.9
20260505022504 16 275 6.4 14.5 0.00 0.00 0.00 63 1033.0
20260505022004 16 267 6.4 17.7 0.00 0.00 0.00 63 1033.0
20260505021504 16 274 6.4 17.7 0.00 0.00 0.00 64 1033.0
20260505021004 16 270 6.4 16.1 0.00 0.00 0.00 63 1033.0
20260505020504 16 269 6.4 16.1 0.00 0.00 0.00 64 1033.1
20260505020218 16 277 6.4 14.5 0.00 0.00 0.00 65 1033.1
20260505015504 16 276 6.4 17.7 0.00 0.00 0.00 65 1033.2
20260505015218 16 274 8.0 17.7 0.00 0.00 0.00 65 1033.2
20260505014719 16 271 6.4 17.7 0.00 0.00 0.00 64 1033.2
20260505014004 16 266 6.4 17.7 0.00 0.00 0.00 65 1033.3
20260505013504 16 268 6.4 16.1 0.00 0.00 0.00 65 1033.4
20260505013004 16 273 4.8 16.1 0.00 0.00 0.00 66 1033.5
20260505012504 16 269 6.4 19.3 0.00 0.00 0.00 65 1033.5
20260505012005 16 269 6.4 19.3 0.00 0.00 0.00 65 1033.6
20260505011719 16 268 6.4 19.3 0.00 0.00 0.00 65 1033.7
20260505011004 16 269 8.0 14.5 0.00 0.00 0.00 65 1033.8
20260505010504 15 273 6.4 14.5 0.00 0.00 0.00 66 1033.9
20260505010004 15 280 6.4 14.5 0.00 0.00 0.00 66 1033.9
20260505005718 15 281 4.8 14.5 0.00 0.00 0.00 67 1034.0
20260505005004 15 266 6.4 14.5 0.00 0.00 0.00 67 1034.1
20260505004504 15 270 6.4 16.1 0.00 0.00 0.00 66 1034.2
20260505004217 15 274 4.8 16.1 0.00 0.00 0.00 67 1034.3
20260505003504 15 281 4.8 16.1 0.00 0.00 0.00 67 1034.4
20260505003004 15 279 6.4 17.7 0.00 0.00 0.00 66 1034.5
20260505002504 15 273 6.4 19.3 0.00 0.00 0.00 66 1034.6
20260505002004 15 273 6.4 19.3 0.00 0.00 0.00 66 1034.6
20260505001504 15 274 6.4 17.7 0.00 0.00 0.00 66 1034.7
20260505001004 15 271 6.4 17.7 0.00 0.00 0.00 65 1034.8
20260505000504 15 270 6.4 14.5 0.00 0.00 0.00 65 1034.9
20260505000004 15 275 6.4 14.5 0.00 0.00 0.00 66 1035.0
20260504235504 15 269 6.4 19.3 0.00 0.00 0.00 66 1035.1
20260504235219 15 268 6.4 19.3 0.00 0.00 0.00 66 1035.1
20260504234504 15 275 6.4 16.1 0.00 0.00 0.00 66 1035.3
20260504234004 15 275 6.4 14.5 0.00 0.00 0.00 66 1035.4
20260504233504 15 275 6.4 17.7 0.00 0.00 0.00 65 1035.4
20260504233004 15 271 8.0 17.7 0.00 0.00 0.00 66 1035.5
20260504232718 15 269 8.0 19.3 0.00 0.00 0.00 67 1035.5
20260504232004 15 272 6.4 19.3 0.00 0.00 0.00 66 1035.5
20260504231718 15 271 6.4 16.1 0.00 0.00 0.00 66 1035.5
20260504231004 15 265 6.4 14.5 0.00 0.00 0.00 67 1035.6
20260504230718 15 267 4.8 12.9 0.00 0.00 0.00 68 1035.6
20260504230004 15 272 3.2 11.3 0.00 0.00 0.00 69 1035.6
20260504225504 15 277 3.2 11.3 0.00 0.00 0.00 69 1035.6
20260504225004 15 283 3.2 12.9 0.00 0.00 0.00 70 1035.5
20260504224504 15 313 3.2 12.9 0.00 0.00 0.00 70 1035.5
20260504224004 14 328 1.6 8.0 0.00 0.00 0.00 71 1035.5
20260504223505 14 313 1.6 6.4 0.00 0.00 0.00 71 1035.5
20260504223004 14 317 1.6 8.0 0.00 0.00 0.00 72 1035.5
20260504222504 14 318 1.6 8.0 0.00 0.00 0.00 72 1035.5
20260504222004 13 327 1.6 11.3 0.00 0.00 0.00 72 1035.5
20260504221504 13 322 3.2 14.5 0.00 0.00 0.00 73 1035.5
20260504221003 13 319 3.2 14.5 0.00 0.00 0.00 72 1035.5
20260504220504 13 315 3.2 14.5 0.00 0.00 0.00 73 1035.6
20260504220004 13 309 3.2 12.9 0.00 0.00 0.00 74 1035.6
20260504215504 13 342 1.6 8.0 0.00 0.00 0.00 74 1035.6
20260504215004 13 354 3.2 11.3 0.00 0.00 0.00 74 1035.6
20260504214504 13 331 3.2 11.3 0.00 0.00 0.00 75 1035.6
20260504214004 12 312 3.2 11.3 0.00 0.00 0.00 75 1035.6
20260504213504 12 343 3.2 11.3 0.00 0.00 0.00 75 1035.7
20260504213004 12 4 3.2 9.7 0.00 0.00 0.00 76 1035.7
20260504212504 12 351 3.2 9.7 0.00 0.00 0.00 76 1035.8
20260504212004 12 333 3.2 11.3 0.00 0.00 0.00 76 1035.8
20260504211719 12 336 3.2 11.3 0.00 0.00 0.00 76 1035.8
20260504211218 12 340 3.2 11.3 0.00 0.00 0.00 76 1035.9
20260504210504 12 342 3.2 11.3 0.00 0.00 0.00 77 1035.9
20260504210004 12 341 3.2 11.3 0.00 0.00 0.00 77 1035.9
20260504205719 12 332 3.2 11.3 0.00 0.00 0.00 78 1035.9
20260504205004 12 306 1.6 8.0 0.00 0.00 0.00 79 1035.9
20260504204719 12 321 1.6 6.4 0.00 0.00 0.00 79 1036.0
20260504204004 12 327 1.6 4.8 0.00 0.00 0.00 80 1035.9
20260504203504 11 326 0.0 4.8 0.00 0.00 0.00 80 1035.9
20260504203004 11 309 0.0 3.2 0.00 0.00 0.00 80 1035.9
20260504202504 11 321 0.0 3.2 0.00 0.00 0.00 80 1035.9
20260504202004 11 324 0.0 3.2 0.00 0.00 0.00 81 1035.9
20260504201504 11 0 0.0 3.2 0.00 0.00 0.00 81 1035.9
20260504201218 11 0 0.0 1.6 0.00 0.00 0.00 80 1035.9
20260504200719 11 0 0.0 1.6 0.00 0.00 0.00 80 1035.8
20260504200004 11 0 0.0 1.6 0.00 0.00 0.00 80 1035.8
20260504195504 11 0 0.0 1.6 0.00 0.00 0.00 80 1035.8
20260504195005 11 0 0.0 1.6 0.00 0.00 0.00 80 1035.7
20260504194718 11 0 0.0 0.0 0.00 0.00 0.00 80 1035.7
20260504194004 11 0 0.0 0.0 0.00 0.00 0.00 80 1035.6
20260504193505 10 0 0.0 0.0 0.00 0.00 0.00 80 1035.6
20260504193004 10 0 0.0 0.0 0.00 0.00 0.00 80 1035.6
20260504192504 10 0 0.0 0.0 0.00 0.00 0.00 80 1035.6
20260504192004 10 0 0.0 0.0 0.00 0.00 0.00 79 1035.5
20260504191504 10 0 0.0 0.0 0.00 0.00 0.00 78 1035.5
20260504191004 10 0 0.0 1.6 0.00 0.00 0.00 77 1035.5
20260504190504 11 272 0.0 4.8 0.00 0.00 0.00 77 1035.4
20260504190004 11 267 1.6 4.8 0.00 0.00 0.00 77 1035.4
20260504185504 11 267 1.6 3.2 0.00 0.00 0.00 76 1035.4
20260504185004 11 266 1.6 4.8 0.00 0.00 0.00 75 1035.5
20260504184504 11 262 1.6 4.8 0.00 0.00 0.00 74 1035.5
20260504184219 11 260 1.6 4.8 0.00 0.00 0.00 74 1035.5
20260504183504 12 268 1.6 4.8 0.00 0.00 0.00 74 1035.5
20260504183219 12 269 1.6 9.7 0.00 0.00 0.00 73 1035.5
20260504182718 12 265 3.2 9.7 0.00 0.00 0.00 73 1035.5
20260504182004 12 255 3.2 8.0 0.00 0.00 0.00 72 1035.6
20260504181504 12 263 3.2 6.4 0.00 0.00 0.00 72 1035.6
20260504181004 12 268 4.8 8.0 0.00 0.00 0.00 72 1035.6
20260504180718 12 265 4.8 8.0 0.00 0.00 0.00 72 1035.6
20260504180004 12 259 4.8 8.0 0.00 0.00 0.00 72 1035.6
20260504175504 12 264 3.2 8.0 0.00 0.00 0.00 72 1035.6
20260504175004 12 264 3.2 6.4 0.00 0.00 0.00 73 1035.6
20260504174504 12 256 3.2 8.0 0.00 0.00 0.00 74 1035.6
20260504174004 12 258 4.8 11.3 0.00 0.00 0.00 75 1035.7
20260504173504 12 267 3.2 11.3 0.00 0.00 0.00 77 1035.7
20260504173004 12 270 3.2 8.0 0.00 0.00 0.00 77 1035.6
20260504172718 12 270 4.8 8.0 0.00 0.00 0.00 77 1035.6
20260504172005 12 277 3.2 8.0 0.00 0.00 0.00 77 1035.6
20260504171504 12 280 3.2 8.0 0.00 0.00 0.00 78 1035.6
20260504171004 12 280 3.2 6.4 0.00 0.00 0.00 78 1035.6
20260504170505 12 274 1.6 6.4 0.00 0.00 0.00 77 1035.6
20260504151004 12 269 1.6 4.8 0.00 0.00 0.00 75 1036.0
20260504150505 12 282 0.0 3.2 0.00 0.00 0.00 76 1036.0
20260504150218 12 276 0.0 4.8 0.00 0.00 0.00 75 1036.1
20260504141004 12 306 1.6 9.7 0.00 0.00 0.00 75 1036.3
20260504140504 12 308 1.6 11.3 0.00 0.00 0.00 75 1036.3
20260504130504 12 304 1.6 6.4 0.00 0.00 0.00 76 1036.4
20260504110504 12 319 0.0 6.4 0.00 0.00 0.00 79 1036.4
20260504100504 12 328 1.6 9.7 0.00 0.00 0.00 79 1036.4
20260504082004 11 323 0.0 3.2 0.00 0.00 0.00 79 1036.0
20260504081504 11 348 0.0 3.2 0.00 0.00 0.00 79 1036.0
20260504081219 11 345 0.0 3.2 0.00 0.00 0.00 78 1036.0
20260504080504 11 331 0.0 3.2 0.00 0.00 0.00 78 1035.9
20260504060218 13 287 1.6 6.4 0.00 0.00 0.00 74 1035.2
20260504050504 13 286 3.2 8.0 0.00 0.00 0.00 73 1035.1
20260504050004 13 276 4.8 9.7 0.00 0.00 0.00 72 1035.1